Погода в Красном Профинтерне

Россия / Ярославская область     57°44′50″N   40°26′17″E
темп.,
°C
ветер,
м/с
пор.,
м/с
влажн.,
%
обл.,
%
осадки,
мм/ч
давл.,
гПа
погр.,
м
18 мая, вт
вт1800:00+16вюв41389100 2.0 1014254
03:00+15вюв41094100 2.2 1013191
06:00+17вюв389289 0.0 1013201
09:00+22юв5106861 0.0 1013380
12:00+26юв695365 0.0 1013722
15:00+27юв6115481 0.0 10131322
18:00+24вюв6126546 0.0 1012511
21:00+20вюв5157415 0.0 1012372
19 мая, ср
ср1900:00+18вюв515796 0.0 1012358
03:00+17вюв514910 0.0 1012331
06:00+18вюв6168239 0.0 1011460
09:00+23юв714682 0.0 1011603
12:00+26юв713574 0.0 10111121
15:00+27юв713531 0.0 10101892
18:00+24юв7136352 0.0 1010707
21:00+21вюв7157414 0.0 1010612
20 мая, чт
чт2000:00+19вюв7167598 0.1 1010474
03:00+17юв51475100 0.1 1010415
06:00+17вюв513782 0.1 1009467
09:00+21вюв610685 0.1 1008615
12:00+24юв8116012 0.0 10081502
15:00+23ююв7127282 1.5 10081447
18:00+19юв5108197 1.8 1007693
21:00+16юв41187100 1.9 1007301
21 мая, пт
пт2100:00+14ююв3891100 0.0 1007172
03:00+12ююв399380 0.0 1006229
06:00+14ююз4890100 0.0 1006398
09:00+14ююз467893 0.0 1007702
12:00+14юз5877100 0.0 1008782
15:00+15зюз787244 0.2 10091142
18:00+12з5987100 0.1 1011630
21:00+10юз379449 0.1 1014148
22 мая, сб
сб2200:00+9ююз379399 0.0 1015121
03:00+9юз3692100 0.0 1016101
06:00+11юз2582100 0.0 1017145
09:00+14з2366100 0.0 1017396
12:00+18ю33551 0.0 10171466
15:00+18ююз235399 0.1 10171419
18:00+17ююв346298 0.0 1017162
21:00+12ююв388854 0.0 1018141